Weather History for KEAU - April, 2013

Change the Weather History Date:

Saturday, April 6, 2013

  Actual Average Record
Temperature  
Mean Temperature 40 °F 41 °F  
Max Temperature 46 °F 53 °F 88 °F (1991)
Min Temperature 33 °F 30 °F 7 °F (1979)
Degree Days  
Heating Degree Days 25 24  
Month to date heating degree days 203 150  
Since 1 July heating degree days 7331 7215  
Cooling Degree Days 0 0  
Month to date cooling degree days 0 0  
Year to date cooling degree days 0 0  
Moisture  
Dew Point 32 °F    
Average Humidity 76    
Maximum Humidity 96    
Minimum Humidity 55    
Precipitation  
Precipitation 0.20 in 0.09 in 0.90 in (1928)
Month to date precipitation 0.27 0.47  
Year to date precipitation 5.66 3.90  
Snow  
Snow 0.00 in 0.10 in 9.00 in (1928)
Month to date snowfall 0.4 0.7  
Since 1 July snowfall 66.6 45.6  
Snow Depth 3.00 in    
Sea Level Pressure  
Sea Level Pressure 29.68 in    
Wind  
Wind Speed 11 mph (NE)    
Max Wind Speed 20 mph    
Max Gust Speed 25 mph    
Visibility 9 miles    
Events Rain    
T = Trace of Precipitation, MM = Missing Value Source: NWS Daily Summary

Daily Weather History Graph

Daily Weather History Graph

Search for Another Location

Airport or City:

Trip Planner

Search our weather history database for the weather conditions in past years. The results will help you decide how hot, cold, wet, or windy it might be!

Date:

Astronomy

Apr. 06, 2013 Rise Set
Actual Time 6:37 AM CDT 7:40 PM CDT
Civil Twilight 6:07 AM CDT 8:10 PM CDT
Nautical Twilight 5:31 AM CDT 8:46 PM CDT
Astronomical Twilight 4:53 AM CDT 9:23 PM CDT
Moon 4:30 AM CDT (4/6) 4:01 PM CDT (4/6)
Length of Visible Light 14h 03m
Length of Day
13h 03m
Waning Crescent, 15% of the Moon is Illuminated
Apr 6
Waning Crescent
Apr 10
New
Apr 18
First Quarter
Apr 25
Full
May 2
Last Quarter

Hourly Weather History & Observations

Time (CDT) Temp. Windchill Dew Point Humidity Pressure Visibility Wind Dir Wind Speed Gust Speed Precip Events Conditions
12:15 AM 33.8 °F 24.8 °F 32.0 °F 93% 29.98 in 10.0 mi East 12.7 mph 23.0 mph N/A   Overcast
12:56 AM 34.0 °F 25.0 °F 32.0 °F 92% 29.99 in 10.0 mi ESE 12.7 mph - 0.00 in   Overcast
1:56 AM 34.0 °F 23.0 °F 30.9 °F 89% 29.96 in 10.0 mi SE 18.4 mph 25.3 mph 0.00 in   Overcast
2:51 AM 33.8 °F 24.8 °F 30.2 °F 87% 29.92 in 10.0 mi SE 12.7 mph 24.2 mph N/A   Overcast
2:56 AM 34.0 °F 23.8 °F 30.9 °F 89% 29.94 in 10.0 mi SE 16.1 mph 24.2 mph N/A   Overcast
3:56 AM 34.0 °F 25.5 °F 30.0 °F 85% 29.91 in 10.0 mi ESE 11.5 mph 20.7 mph N/A   Overcast
4:56 AM 34.0 °F 24.6 °F 28.0 °F 79% 29.88 in 10.0 mi SE 13.8 mph 21.9 mph N/A   Overcast
5:56 AM 34.0 °F 25.0 °F 25.0 °F 70% 29.85 in 10.0 mi SE 12.7 mph 19.6 mph 0.00 in Rain Light Rain
6:56 AM 33.1 °F 24.9 °F 24.1 °F 70% 29.83 in 10.0 mi SE 10.4 mph - 0.00 in   Clear
7:56 AM 33.1 °F 23.9 °F 23.0 °F 66% 29.81 in 10.0 mi ESE 12.7 mph 21.9 mph N/A   Partly Cloudy
8:56 AM 34.0 °F 25.5 °F 24.1 °F 67% 29.78 in 10.0 mi ESE 11.5 mph - N/A   Mostly Cloudy
9:56 AM 36.0 °F 27.1 °F 24.1 °F 62% 29.73 in 10.0 mi SE 13.8 mph 21.9 mph N/A   Overcast
10:56 AM 37.9 °F 30.5 °F 24.1 °F 57% 29.70 in 10.0 mi SE 11.5 mph 20.7 mph N/A   Mostly Cloudy
11:56 AM 41.0 °F 32.2 °F 26.1 °F 55% 29.66 in 10.0 mi SE 18.4 mph 23.0 mph N/A   Clear
12:56 PM 43.0 °F 36.8 °F 28.0 °F 56% 29.63 in 10.0 mi SE 11.5 mph - N/A   Partly Cloudy
1:56 PM 45.0 °F 39.7 °F 30.0 °F 56% 29.60 in 10.0 mi SSE 10.4 mph - N/A   Mostly Cloudy
2:56 PM 45.0 °F 42.6 °F 30.0 °F 56% 29.57 in 10.0 mi ESE 4.6 mph - N/A   Overcast
3:56 PM 43.0 °F 39.5 °F 32.0 °F 65% 29.53 in 10.0 mi ENE 5.8 mph - 0.00 in   Overcast
4:56 PM 42.1 °F 38.4 °F 33.1 °F 70% 29.52 in 9.0 mi NE 5.8 mph - 0.00 in Rain Light Rain
5:32 PM 39.2 °F 35.9 °F 35.6 °F 87% 29.49 in 5.0 mi NNE 4.6 mph - 0.04 in Rain Rain
5:56 PM 39.0 °F 34.0 °F 37.0 °F 93% 29.51 in 4.0 mi NNE 6.9 mph - 0.08 in Rain Rain
6:48 PM 37.4 °F 32.1 °F 35.6 °F 93% 29.49 in 2.5 mi North 6.9 mph - 0.08 in Rain Rain
6:56 PM 37.0 °F 29.3 °F 36.0 °F 96% 29.52 in 2.5 mi NNW 11.5 mph - 0.09 in Rain Rain
7:05 PM 37.4 °F 30.3 °F 35.6 °F 93% 29.50 in 3.0 mi North 10.4 mph - 0.01 in Rain Rain
7:56 PM 37.0 °F 31.0 °F 36.0 °F 96% 29.56 in 7.0 mi NNW 8.1 mph - 0.03 in Rain Light Rain
8:17 PM 37.4 °F 30.8 °F 35.6 °F 93% 29.54 in 9.0 mi NNW 9.2 mph - 0.00 in Rain Light Rain
8:34 PM 37.4 °F 30.8 °F 35.6 °F 93% 29.56 in 8.0 mi NW 9.2 mph - 0.00 in Rain Light Rain
8:44 PM 37.4 °F 30.8 °F 35.6 °F 93% 29.57 in 9.0 mi NNW 9.2 mph - 0.00 in Rain Light Rain
8:56 PM 37.0 °F 30.4 °F 36.0 °F 96% 29.60 in 9.0 mi NNW 9.2 mph - 0.00 in Rain Light Rain
9:10 PM 37.4 °F 30.8 °F 35.6 °F 93% 29.59 in 10.0 mi NW 9.2 mph - 0.00 in Rain Light Rain
9:18 PM 37.4 °F 29.8 °F 35.6 °F 93% 29.60 in 10.0 mi WNW 11.5 mph - 0.00 in   Overcast
9:46 PM 35.6 °F 27.5 °F 35.6 °F 100% 29.61 in 10.0 mi NW 11.5 mph - 0.00 in   Overcast
9:56 PM 36.0 °F 28.5 °F 34.0 °F 93% 29.64 in 10.0 mi NW 10.4 mph - 0.00 in   Overcast
10:05 PM 37.4 °F 29.3 °F 33.8 °F 87% 29.62 in 10.0 mi NW 12.7 mph - N/A   Overcast
10:35 PM 35.6 °F 26.6 °F 33.8 °F 93% 29.63 in 10.0 mi NW 13.8 mph - N/A   Overcast
10:56 PM 36.0 °F 28.5 °F 33.1 °F 89% 29.67 in 10.0 mi NW 10.4 mph - N/A   Overcast
11:56 PM 35.1 °F 27.4 °F 32.0 °F 89% 29.70 in 10.0 mi NW 10.4 mph - N/A   Overcast